When you browse on this site, cookies collect data to enhance your experience and personalize the content and advertising you see.
Visit our Privacy Policy to learn more. By continuing to use the site, you agree to this use of cookies and data.
  • In Hungary
  • List of Countries
  • For 7 days
  • Water Temperature
  • Weather Map
  • News
  • Weather Widgets
  • user-avatar
    Login

    Hourly Weather Zaglyadovka

    Today, 20 January, Monday

    Time Temperature Precipitation Wind Pressure Humidity
    00:00 -6°C° 0 mm 3 mps 764 mmHg 95%
    01:00 -6°C° 0 mm 3 mps 764 mmHg 95%
    02:00 -5°C° 0 mm 3 mps 764 mmHg 95%
    03:00 -4°C° 0 mm 4 mps 764 mmHg 97%
    04:00 -4°C° 0.1 mm 4 mps 763 mmHg 96%
    05:00 -3°C° 0.1 mm 4 mps 763 mmHg 96%
    06:00 -3°C° 0.1 mm 4 mps 763 mmHg 95%
    07:00 -3°C° 0 mm 4 mps 762 mmHg 95%
    08:00 -4°C° 0 mm 4 mps 762 mmHg 95%
    09:00 -4°C° 0 mm 4 mps 762 mmHg 96%
    10:00 -4°C° 0.1 mm 4 mps 762 mmHg 94%
    11:00 -3°C° 0.1 mm 4 mps 761 mmHg 93%
    12:00 -3°C° 0.1 mm 4 mps 761 mmHg 92%
    13:00 -3°C° 0 mm 4 mps 761 mmHg 92%
    14:00 -3°C° 0 mm 4 mps 761 mmHg 91%
    15:00 -4°C° 0 mm 3 mps 760 mmHg 92%
    16:00 -4°C° 0.1 mm 3 mps 760 mmHg 93%
    17:00 -4°C° 0.1 mm 3 mps 759 mmHg 95%
    18:00 -5°C° 0.1 mm 3 mps 759 mmHg 96%
    19:00 -4°C° 0.1 mm 3 mps 759 mmHg 95%
    20:00 -4°C° 0.1 mm 4 mps 758 mmHg 95%
    21:00 -4°C° 0.1 mm 4 mps 758 mmHg 94%
    22:00 -3°C° 0 mm 4 mps 758 mmHg 94%
    23:00 -3°C° 0 mm 4 mps 758 mmHg 94%

    Tomorrow, 21 January, Tuesday

    Time Temperature Precipitation Wind Pressure Humidity
    00:00 -3°C° 0 mm 4 mps 757 mmHg 93%
    01:00 -3°C° 0 mm 4 mps 757 mmHg 94%
    02:00 -4°C° 0 mm 3 mps 757 mmHg 95%
    03:00 -5°C° 0 mm 3 mps 757 mmHg 95%
    04:00 -5°C° 0 mm 3 mps 757 mmHg 95%
    05:00 -5°C° 0 mm 3 mps 756 mmHg 95%
    06:00 -5°C° 0 mm 2 mps 756 mmHg 96%
    07:00 -5°C° 0 mm 3 mps 756 mmHg 95%
    08:00 -5°C° 0 mm 3 mps 756 mmHg 95%
    09:00 -4°C° 0 mm 3 mps 755 mmHg 95%
    10:00 -4°C° 0 mm 3 mps 755 mmHg 94%
    11:00 -2°C° 0 mm 3 mps 754 mmHg 94%
    12:00 -2°C° 0 mm 4 mps 754 mmHg 93%
    13:00 -2°C° 0 mm 4 mps 753 mmHg 93%
    14:00 -2°C° 0 mm 4 mps 753 mmHg 93%
    15:00 -2°C° 0 mm 4 mps 753 mmHg 93%
    16:00 -3°C° 0 mm 4 mps 752 mmHg 93%
    17:00 -4°C° 0 mm 5 mps 751 mmHg 93%
    18:00 -4°C° 0 mm 5 mps 750 mmHg 93%
    19:00 -4°C° 0.1 mm 5 mps 749 mmHg 93%
    20:00 -4°C° 0.1 mm 6 mps 748 mmHg 93%
    21:00 -5°C° 0.1 mm 6 mps 747 mmHg 93%
    22:00 -5°C° 0.3 mm 6 mps 746 mmHg 93%
    23:00 -6°C° 0.3 mm 7 mps 745 mmHg 94%

    Day after tomorrow, 22 January, Wednesday

    Time Temperature Precipitation Wind Pressure Humidity
    00:00 -6°C° 0.3 mm 7 mps 744 mmHg 95%
    01:00 -6°C° 0.9 mm 7 mps 743 mmHg 95%
    02:00 -4°C° 0.9 mm 7 mps 742 mmHg 95%
    03:00 -4°C° 0.9 mm 7 mps 741 mmHg 96%
    04:00 -4°C° 1 mm 6 mps 740 mmHg 96%
    05:00 -2°C° 1 mm 5 mps 739 mmHg 97%
    06:00 -2°C° 1 mm 5 mps 738 mmHg 98%
    07:00 -1°C° 0.8 mm 4 mps 737 mmHg 98%
    08:00 0°C° 0.8 mm 3 mps 737 mmHg 99%
    09:00 0°C° 0.8 mm 3 mps 737 mmHg 99%
    10:00 0°C° 0.2 mm 3 mps 737 mmHg 99%
    11:00 -1°C° 0.2 mm 4 mps 736 mmHg 99%
    12:00 -1°C° 0.2 mm 5 mps 736 mmHg 99%
    13:00 -2°C° 0.2 mm 5 mps 737 mmHg 96%
    14:00 -3°C° 0.2 mm 6 mps 738 mmHg 94%
    15:00 -4°C° 0.2 mm 7 mps 738 mmHg 91%
    16:00 -5°C° 0 mm 6 mps 739 mmHg 90%
    17:00 -6°C° 0 mm 5 mps 739 mmHg 89%
    18:00 -5°C° 0 mm 4 mps 740 mmHg 87%
    19:00 -7°C° 0 mm 4 mps 740 mmHg 88%
    20:00 -7°C° 0 mm 3 mps 740 mmHg 89%
    21:00 -8°C° 0 mm 3 mps 740 mmHg 90%
    22:00 -8°C° 0 mm 3 mps 740 mmHg 91%
    23:00 -9°C° 0 mm 3 mps 740 mmHg 91%

    23 January, Thursday

    Time Temperature Precipitation Wind Pressure Humidity
    00:00 -9°C° 0 mm 3 mps 740 mmHg 92%
    01:00 -9°C° 0 mm 3 mps 740 mmHg 93%
    02:00 -10°C° 0 mm 3 mps 740 mmHg 93%
    03:00 -10°C° 0 mm 3 mps 741 mmHg 94%
    04:00 -10°C° 0 mm 3 mps 740 mmHg 94%
    05:00 -10°C° 0 mm 3 mps 740 mmHg 94%
    06:00 -10°C° 0 mm 3 mps 740 mmHg 95%
    07:00 -10°C° 0 mm 3 mps 741 mmHg 95%
    08:00 -8°C° 0 mm 2 mps 741 mmHg 94%
    09:00 -7°C° 0 mm 2 mps 741 mmHg 94%
    10:00 -7°C° 0 mm 2 mps 741 mmHg 94%
    11:00 -6°C° 0 mm 2 mps 742 mmHg 94%
    12:00 -5°C° 0 mm 2 mps 742 mmHg 93%
    13:00 -5°C° 0 mm 2 mps 742 mmHg 93%
    14:00 -6°C° 0 mm 2 mps 743 mmHg 94%
    15:00 -6°C° 0 mm 2 mps 743 mmHg 94%
    16:00 -7°C° 0 mm 2 mps 743 mmHg 94%
    17:00 -8°C° 0 mm 2 mps 744 mmHg 95%
    18:00 -10°C° 0 mm 2 mps 745 mmHg 95%
    19:00 -9°C° 0 mm 2 mps 745 mmHg 95%
    20:00 -8°C° 0 mm 1 mps 746 mmHg 96%
    21:00 -8°C° 0 mm 1 mps 747 mmHg 96%
    22:00 -8°C° 0 mm 1 mps 747 mmHg 96%
    23:00 -9°C° 0 mm 2 mps 748 mmHg 95%

    24 January, Friday

    Time Temperature Precipitation Wind Pressure Humidity
    00:00 -9°C° 0 mm 2 mps 749 mmHg 95%
    01:00 -10°C° 0 mm 2 mps 749 mmHg 95%
    02:00 -12°C° 0 mm 2 mps 750 mmHg 95%
    03:00 -13°C° 0 mm 2 mps 751 mmHg 95%
    04:00 -14°C° 0 mm 2 mps 751 mmHg 95%
    05:00 -14°C° 0 mm 2 mps 751 mmHg 95%
    06:00 -15°C° 0 mm 2 mps 752 mmHg 95%
    07:00 -15°C° 0 mm 2 mps 752 mmHg 95%
    08:00 -15°C° 0 mm 2 mps 753 mmHg 94%
    09:00 -15°C° 0 mm 2 mps 753 mmHg 94%
    10:00 -14°C° 0 mm 3 mps 754 mmHg 93%
    11:00 -13°C° 0 mm 3 mps 754 mmHg 92%
    12:00 -10°C° 0 mm 3 mps 754 mmHg 91%
    13:00 -10°C° 0 mm 3 mps 754 mmHg 92%
    14:00 -10°C° 0 mm 3 mps 754 mmHg 92%
    15:00 -10°C° 0 mm 3 mps 754 mmHg 93%
    16:00 -12°C° 0 mm 3 mps 754 mmHg 93%
    17:00 -13°C° 0 mm 3 mps 755 mmHg 94%
    18:00 -13°C° 0 mm 3 mps 755 mmHg 95%
    19:00 -14°C° 0 mm 3 mps 755 mmHg 95%
    20:00 -14°C° 0 mm 2 mps 755 mmHg 95%
    21:00 -15°C° 0 mm 2 mps 755 mmHg 95%
    22:00 -16°C° 0 mm 3 mps 755 mmHg 95%
    23:00 -16°C° 0 mm 3 mps 754 mmHg 96%

    25 January, Saturday

    Time Temperature Precipitation Wind Pressure Humidity
    00:00 -17°C° 0 mm 3 mps 754 mmHg 96%
    01:00 -16°C° 0 mm 3 mps 754 mmHg 95%
    02:00 -16°C° 0 mm 4 mps 753 mmHg 94%
    03:00 -15°C° 0 mm 4 mps 753 mmHg 94%
    04:00 -14°C° 0.1 mm 4 mps 753 mmHg 93%
    05:00 -12°C° 0.1 mm 4 mps 752 mmHg 93%
    06:00 -12°C° 0.1 mm 5 mps 752 mmHg 93%
    07:00 -11°C° 0.1 mm 5 mps 752 mmHg 93%
    08:00 -10°C° 0.1 mm 5 mps 751 mmHg 93%
    09:00 -8°C° 0.1 mm 5 mps 751 mmHg 93%
    10:00 -7°C° 0 mm 5 mps 751 mmHg 93%
    11:00 -5°C° 0 mm 4 mps 751 mmHg 93%
    12:00 -3°C° 0 mm 4 mps 752 mmHg 93%
    13:00 -3°C° 0 mm 4 mps 752 mmHg 93%
    14:00 -3°C° 0 mm 4 mps 752 mmHg 92%
    15:00 -2°C° 0 mm 3 mps 752 mmHg 92%
    16:00 -4°C° 0 mm 3 mps 752 mmHg 92%
    17:00 -5°C° 0 mm 3 mps 753 mmHg 92%
    18:00 -5°C° 0 mm 2 mps 753 mmHg 92%
    19:00 -6°C° 0 mm 2 mps 753 mmHg 92%
    20:00 -6°C° 0 mm 2 mps 753 mmHg 92%
    21:00 -7°C° 0 mm 2 mps 754 mmHg 92%
    22:00 -7°C° 0 mm 2 mps 754 mmHg 93%
    23:00 -7°C° 0 mm 2 mps 754 mmHg 94%
    Show more